This is the latest recevied weather packets stored in our database for station/object KD2SIG. If no packets are shown the sender has not sent any weather packets the latest 10 day(s).
| Time | Temp. | Humidity | Pressure | Rain* | Wind** | Luminosity | Snow |
|---|---|---|---|---|---|---|---|
| 1777550681 | 6.11° C | 98% | 1009.2 hPa | 0 mm | - | 38 W/m² | - |
| 1777550376 | 6.11° C | 98% | 1009.4 hPa | 0 mm | - | 31 W/m² | - |
| 1777550073 | 6.11° C | 98% | 1009.2 hPa | 0 mm | - | 29 W/m² | - |
| 1777549770 | 6.11° C | 98% | 1009 hPa | 0 mm | - | 27 W/m² | - |
| 1777549465 | 6.11° C | 98% | 1009.1 hPa | 0 mm | - | 24 W/m² | - |
| 1777549162 | 6.11° C | 98% | 1009 hPa | 0 mm | - | 20 W/m² | - |
| 1777548858 | 6.11° C | 98% | 1009 hPa | 0 mm | - | 20 W/m² | - |
| 1777548555 | 6.11° C | 98% | 1009 hPa | 0 mm | - | 17 W/m² | - |
| 1777548252 | 6.11° C | 98% | 1008.9 hPa | 0 mm | - | 13 W/m² | - |
| 1777547949 | 6.11° C | 98% | 1008.6 hPa | 0 mm | - | 13 W/m² | - |
| 1777547645 | 6.11° C | 98% | 1008.8 hPa | 0 mm | - | 13 W/m² | - |
| 1777547341 | 6.11° C | 98% | 1008.5 hPa | 0 mm | - | 11 W/m² | - |
| 1777547039 | 6.11° C | 98% | 1008.4 hPa | 0 mm | - | 8 W/m² | - |
| 1777546736 | 6.11° C | 98% | 1008.4 hPa | 0 mm | - | 8 W/m² | - |
| 1777546433 | 6.11° C | 98% | 1008.1 hPa | 0 mm | - | 6 W/m² | - |
| 1777546130 | 6.67° C | 98% | 1008.2 hPa | 0 mm | - | 6 W/m² | - |
| 1777545825 | 6.67° C | 98% | 1008.1 hPa | 0 mm | - | 4 W/m² | - |
| 1777545523 | 6.11° C | 98% | 1008.2 hPa | 0 mm | - | 5 W/m² | - |
| 1777545219 | 6.11° C | 98% | 1007.9 hPa | 0 mm | - | 3 W/m² | - |
| 1777544918 | 6.67° C | 98% | 1007.9 hPa | 0 mm | - | 3 W/m² | - |
| 1777544613 | 6.67° C | 98% | 1007.8 hPa | 1.78 mm | - | 1 W/m² | - |
| 1777544310 | 6.67° C | 98% | 1007.7 hPa | 0 mm | - | 0 W/m² | - |
| 1777544007 | 6.67° C | 98% | 1007.7 hPa | 0 mm | - | 0 W/m² | - |
| 1777543704 | 6.67° C | 98% | 1007.5 hPa | 0 mm | - | 0 W/m² | - |
| 1777543400 | 6.67° C | 98% | 1007.8 hPa | 0 mm | - | 0 W/m² | - |
* Rain latest hour (hover to see other rain measurements)
** Current wind speed in m/s (hover to see current wind gust speed)